Location: ?ejeti?ky
(50.4060°N, 14.9016°E)
Time: 21:54:03
(UTC+00:00)

CZ-4B R/B - Pass Details

Date: 07 June 2020
Orbit: 703 x 802 km, 98.8° (Epoch: 04 July)

Event Time Altitude Azimuth Distance (km) Brightness Sun altitude
Rises 00:52:19 0° 17° (NNE) 3,298 8.7 -12.7°
Reaches altitude 10° 00:54:40 10° 20° (NNE) 2,373 7.5 -12.5°
Maximum altitude 00:59:54 68° 103° (ESE) 865 3.8 -12.1°
Enters shadow 01:04:35 13° 185° (S) 2,156 5.3 -11.7°
